XM-5

Last updated on Sun Jun 21 2026 00:03:04 GMT+0000 (Coordinated Universal Time)

1 37185U 10053A 26171.31433647 -.00000028 00000+0 00000+0 0 9990 2 37185 0.0612 272.6077 0002705 287.8737 66.0100 1.00272741 57517
UTC large
Height (km)
Speed (km/s)
/
Latitude / Longitude
Inclination (degrees)
Orbital Period (minutes)
Azimuth
Elevation
Range (km)
Doppler Factor

Next 0 passes for location: London (51.5072 / 0.1276)

No passes found over London.
XM-5